Location: Caramacate
(10.0289°N, 66.7587°W)
Time: 20:44:28
(UTC+00:00)

CZ-2C R/B - Pass Details

Date: 05 August 2024
Orbit: 454 x 502 km, 97.8° (Epoch: 07 September)

Event Time Altitude Azimuth Distance (km) Brightness Sun altitude
Rises 23:02:39 0° 175° (S) 2,569 6.0 -4.1°
Reaches altitude 10° 23:04:44 10° 179° (S) 1,696 5.1 -4.6°
Maximum altitude 23:08:20 60° 259° (W) 580 3.3 -5.5°
Drops below altitude 10° 23:12:00 10° 339° (NNW) 1,719 5.9 -6.3°
Sets 23:14:10 0° 343° (NNW) 2,632 6.8 -6.8°
